Regional Weather Roundup
Issued by NWS Bismarck, ND

Home | Current Version | Previous Version | Text Only | Print | Product List | Glossary On
Versions: 1 2 3 4 5 6 7 8 9 10 11 12 13 14 15 16 17 18 19 20 21 22 23 24 25 26 27 28 29 30 31 32 33 34 35 36 37 38 39 40 41 42 43 44 45 46 47 48 49 50
000
ASUS43 KBIS 170459
RWRBIS

NWR BROADCAST TEXT
NATIONAL WEATHER SERVICE BISMARCK ND
1200 AM CDT WED SEP 17 2014

NOTE: "FAIR" INDICATES FEW OR NO CLOUDS BELOW 12,000 FEET WITH NO
SIGNIFICANT WEATHER AND/OR OBSTRUCTIONS TO VISIBILITY.


CITY           SKY/WX    TMP DP  RH WIND       PRES   REMARKS
WILLISTON      CLEAR     43  37  79 CALM      29.93R HAZE
MINOT          CLEAR     52  45  77 SW9       29.91S
MINOT AFB      NOT AVBL
BISMARCK       CLEAR     53  46  77 NE6       29.93R
DICKINSON      PTCLDY    49  43  80 S5        29.93S
GARRISON         N/A     48  43  82 N5        29.92S
HETTINGER ARPT CLOUDY    49  44  83 CALM      29.95S
JAMESTOWN      NOT AVBL
BEACH            N/A     46  45  93 S5        29.95S
CARRINGTON     FAIR      46  45  93 S6        29.93S
CROSBY         FAIR      48  45  87 S9        29.91S
HARVEY         FAIR      48  41  76 CALM      29.92S
HAZEN          CLOUDY    39  37  93 CALM      29.93S
LINTON         FAIR      50  48  93 E7        29.92S
MANDAN         FAIR      50  43  76 CALM      29.93F
OAKES            N/A     48  48 100 S6        29.92S
RUGBY          FAIR      46  45  93 SE6       29.91S
TIOGA          FAIR      39  39 100 CALM      29.96S
WATFORD CITY   FAIR      45  37  76 CALM      29.92S
$$

CITY           SKY/WX    TMP DP  RH WIND       PRES   REMARKS
GRAND FORKS    CLEAR     48  42  80 S6        29.90F
GRAND FORKS AF NOT AVBL
DEVILS LAKE    CLEAR     54  39  58 S3        29.90F
FARGO          FAIR      57  46  66 SE9       29.91F
CAVALIER       FAIR      54  43  66 SW7       29.89S
GRAFTON        FAIR      50  43  76 SW6       29.89F
GWINNER        CLEAR     52  52 100 S7        29.92F
LANGDON        FAIR      45  37  76 SW6       29.91S HAZE
ROLLA          FAIR      45  43  93 SE8       29.92S
WALHALLA         N/A     50  45  81 CALM      29.89S
$$

CITY           SKY/WX    TMP DP  RH WIND       PRES   REMARKS
ABERDEEN       CLEAR     50  49  96 E5        29.91S
MOBRIDGE       MOCLDY    54  51  90 E7        29.88S
RAPID CITY     CLEAR     55  46  71 NW3       29.96S
GLASGOW        PTCLDY    57  42  57 E12       29.90R
SIDNEY         CLEAR     48  37  66 W3        29.94R
WOLF POINT     CLEAR     49  39  68 CALM      29.91S
MILES CITY     MOCLDY    62  45  53 S7        29.92R
BAKER          CLOUDY    52  46  80 E3        29.95F
$$

CITY           SKY/WX    TMP DP  RH WIND       PRES   REMARKS
BILLINGS       MOCLDY    68  42  38 SW7       29.95R
GREAT FALLS    CLOUDY    60  44  55 SW8       29.91R
$$



USA.gov is the U.S. government's official web portal to all federal, state and local government web resources and services.